Flag for Angola Weather past 2 weeks in Lubango, Angola

Now
57 °F

Refreshingly cool.


Feels Like: 57 °F
Forecast: 54 / 73 °F
Wind: 2 mph from East

Location: Ondangwa

Current Time: Aug 1, 2014 at 2:50:26 AM

Latest Report: Aug 1, 2014 at 2:00 AM


Visibility: N/A

Pressure: 30.18 "Hg

Humidity: 41%

Dew point: 34 °F

Location of LubangoLocation

Historic Weather in Lubango — Graph

°F

Lubango temperature yesterday

Maximum temperature yesterday: 84 °F (at 2:00 PM)
Minimum temperature yesterday: 59 °F (at 2:00 AM)
Average temperature yesterday: 69 °F

Past Weeks' High & Low Weather Summary

 TemperatureHumidityPressure
High88 °F (Jul 20, 3:00 PM)71% (Jul 26, 6:00 AM)30.24 "Hg (Jul 26, 6:00 AM)
Low45 °F (Jul 26, 6:00 AM)10% (Jul 29, 2:00 PM)30.01 "Hg (Jul 25, 3:00 PM)
Average67 °F29%30.15 "Hg
* Reported Jul 17 1:00 AM — Aug 1 1:00 AM, Lubango, Weather by CustomWeather, © 2014

Note: Actual official high and low records may vary slightly from our data, if they occured in-between our weather recording intervals... More about our weather records

Advertising

Lubango weather history for previous 24 hours

 ConditionsComfort  
Time TempWeatherWind HumidityBarometerVisibility
1:00 AM
Aug 1
59 °FRefreshingly cool.3 mph39%30.18 "HgN/A
12:00 AM59 °FRefreshingly cool.2 mph39%30.18 "HgN/A
11:00 PM
Jul 31
63 °FMild.3 mph32%30.21 "HgN/A
10:00 PM64 °FMild.3 mph30%30.18 "HgN/A
9:00 PM66 °FMild.3 mph28%30.18 "HgN/A
8:00 PM68 °FMild.3 mph28%30.18 "HgN/A
7:00 PM72 °FClear.2 mph23%30.15 "Hg10 mi
6:00 PM75 °FClear.3 mph21%30.15 "Hg10 mi
4:00 PM84 °FSunny.8 mph15%30.12 "Hg10 mi
3:00 PM84 °FSunny.2 mph15%30.12 "Hg10 mi
2:00 PM84 °FSunny.6 mph16%30.15 "Hg10 mi
1:00 PM82 °FSunny.6 mph16%30.15 "Hg10 mi
12:00 PM82 °FSunny.8 mph20%30.21 "Hg10 mi
10:00 AM75 °FSunny.14 mph31%30.24 "Hg10 mi
9:00 AM70 °FSunny.10 mph40%30.24 "Hg10 mi
8:00 AM64 °FSunny.7 mph49%30.24 "Hg10 mi
7:00 AM59 °FSunny.5 mph55%30.21 "Hg10 mi
6:00 AM59 °FClear.7 mph55%30.18 "Hg10 mi
5:00 AM59 °FRefreshingly cool.7 mph51%30.18 "HgN/A
4:00 AM59 °FRefreshingly cool.5 mph51%30.18 "HgN/A
3:00 AM61 °FRefreshingly cool.7 mph45%30.18 "HgN/A
2:00 AM59 °FRefreshingly cool.3 mph45%30.18 "HgN/A
Weather by CustomWeather, © 2014

See weather overviewHow to use our weather pages